Flag for Canada Weather past 2 weeks in Lloydminster, Alberta, Canada

Now
75 °F

Broken clouds.


Feels Like: 77 °F
Forecast: 48 / 74 °F
Wind: 6 mph from West

Location: Lloydminister

Current Time: Aug 2, 2015 at 3:19:29 PM

Latest Report: Aug 2, 2015 at 2:00 PM


Visibility: 15 mi

Pressure: 30.05 "Hg (27.89 "Hg at 648m altitude)

Humidity: 36%

Dew point: 46 °F

Location of LloydminsterLocation

Historic Weather in Lloydminster — Graph

°F

Lloydminster temperature yesterday

Maximum temperature yesterday: 73 °F (at 4:00 PM)
Minimum temperature yesterday: 57 °F (at 6:00 AM)
Average temperature yesterday: 63 °F

Past Weeks' High & Low Weather Summary

 TemperatureHumidityPressure
High81 °F (Jul 31, 5:00 PM)100% (Jul 24, 3:00 AM)30.17 "Hg (Jul 24, 3:00 AM)
Low46 °F (Jul 24, 3:00 AM)28% (Jul 31, 3:00 PM)29.61 "Hg (Jul 22, 4:00 PM)
Average63 °F67%29.89 "Hg
* Reported Jul 18 2:00 PM — Aug 2 2:00 PM, Lloydminster, Weather by CustomWeather, © 2015

Note: Actual official high and low records may vary slightly from our data, if they occured in-between our weather recording intervals... More about our weather records

Advertising

Lloydminster weather history for previous 24 hours

 ConditionsComfort  
Time TempWeatherWind HumidityBarometerVisibility
2:00 PM
Sun, Aug 2
75 °FBroken clouds.6 mph36%30.05 "Hg15 mi
1:00 PM73 °FPassing clouds.3 mph41%30.06 "Hg15 mi
12:00 PM72 °FScattered clouds.5 mph47%30.07 "Hg15 mi
11:00 AM70 °FScattered clouds.5 mph50%30.06 "Hg15 mi
10:00 AM66 °FPassing clouds.3 mph64%30.07 "Hg15 mi
9:00 AM64 °FPassing clouds.2 mph68%30.07 "Hg15 mi
8:00 AM59 °FPassing clouds.3 mph82%30.07 "Hg15 mi
7:00 AM54 °FPassing clouds.5 mph88%30.07 "Hg15 mi
6:00 AM48 °FClear.6 mph94%30.06 "Hg9 mi
5:00 AM46 °FClear.5 mph93%30.05 "Hg9 mi
4:00 AM48 °FClear.3 mph94%30.04 "Hg9 mi
3:00 AM50 °FClear.5 mph88%30.05 "Hg9 mi
2:00 AM52 °FClear.6 mph88%30.03 "Hg9 mi
1:00 AM54 °FClear.5 mph88%30.02 "Hg9 mi
12:00 AM54 °FClear.6 mph82%30.02 "Hg9 mi
11:00 PM
Sat, Aug 1
59 °FClear.3 mph72%30.01 "Hg9 mi
10:00 PM61 °FScattered clouds.6 mph77%30.00 "Hg15 mi
9:00 PM63 °FBroken clouds.3 mph73%29.97 "Hg15 mi
8:00 PM68 °FBroken clouds.6 mph56%29.96 "Hg15 mi
7:00 PM70 °FPartly sunny.12 mph53%29.94 "Hg15 mi
6:00 PM73 °FBroken clouds.14 mph41%29.94 "Hg15 mi
5:00 PM73 °FBroken clouds.21 mph44%29.94 "Hg15 mi
4:00 PM73 °FPartly sunny.14 mph47%29.93 "Hg15 mi
3:00 PM66 °FPartly sunny.12 mph68%29.95 "Hg15 mi
Weather by CustomWeather, © 2015

See weather overviewHow to use our weather pages